Allentown, PA

4:01 AM EST on December 11, 2019 (GMT -0500)
Allentown

Weather History for KXLL - May, 2019

Change the Weather History Date:

Monday, May 13, 2019

  Actual Average (WUND) Record (WUND)
Temperature  
Mean Temperature 45 °F -  
Max Temperature 48 °F - - (-1)
Min Temperature 42 °F - - (-1)
Degree Days  
Heating Degree Days 20    
Moisture  
Dew Point 45 °F    
Average Humidity 99    
Maximum Humidity 100    
Minimum Humidity 93    
Precipitation  
Precipitation 0.85 in - - ()
Sea Level Pressure  
Sea Level Pressure 29.85 in    
Wind  
Wind Speed 6 mph (ENE)    
Max Wind Speed 10 mph    
Max Gust Speed -    
Visibility 7 miles    
Events Rain    
Averages and records for this station are not official NWS values.
T = Trace of Precipitation, MM = Missing Value Source: NWS Daily Summary

Daily Weather History Graph

Daily Weather History Graph

Search for Another Location

Airport or City:

Astronomy

May. 13, 2019 Rise Set
Actual Time 5:47 AM EDT 8:09 PM EDT
Civil Twilight 5:16 AM EDT 8:40 PM EDT
Nautical Twilight 4:38 AM EDT 9:18 PM EDT
Astronomical Twilight 3:56 AM EDT 10:01 PM EDT
Moon 2:16 PM EDT (5/13) 3:06 AM EDT (5/13)
Length of Visible Light 15h 23m
Length of Day
14h 22m
Waxing Gibbous, 68% of the Moon is Illuminated
May 13
Waxing Gibbous
May 18
Full
May 26
Last Quarter
Jun 3
New
Jun 10
First Quarter

Hourly Weather History & Observations

Time (EDT) Temp. Windchill Dew Point Humidity Pressure Visibility Wind Dir Wind Speed Gust Speed Precip Events Conditions
12:15 AM 42.8 °F 38.6 °F 42.8 °F 100% 29.91 in 5.0 mi NE 6.9 mph - N/A   Overcast
12:35 AM 42.8 °F 38.0 °F 42.8 °F 100% 29.90 in 7.0 mi ENE 8.1 mph - N/A   Light Drizzle
12:55 AM 42.8 °F 38.6 °F 42.8 °F 100% 29.90 in 5.0 mi NE 6.9 mph - N/A Rain Light Rain
1:15 AM 42.8 °F 39.3 °F 42.8 °F 100% 29.89 in 7.0 mi NE 5.8 mph - N/A   Overcast
1:35 AM 42.8 °F 38.6 °F 42.8 °F 100% 29.89 in 10.0 mi NE 6.9 mph - N/A   Overcast
1:55 AM 42.8 °F 37.0 °F 42.8 °F 100% 29.89 in 10.0 mi NE 10.4 mph - N/A   Overcast
2:15 AM 42.8 °F 38.0 °F 42.8 °F 100% 29.88 in 10.0 mi NE 8.1 mph - N/A   Overcast
2:30 AM 42.8 °F 38.6 °F 42.8 °F 100% 29.87 in 10.0 mi NE 6.9 mph - N/A   Overcast
2:55 AM 42.8 °F 37.5 °F 42.8 °F 100% 29.86 in 10.0 mi ENE 9.2 mph - N/A   Overcast
3:15 AM 42.8 °F 39.3 °F 42.8 °F 100% 29.86 in 10.0 mi ENE 5.8 mph - N/A   Overcast
3:35 AM 42.8 °F 39.3 °F 42.8 °F 100% 29.86 in 10.0 mi ENE 5.8 mph - N/A   Overcast
3:55 AM 42.8 °F 40.1 °F 42.8 °F 100% 29.86 in 7.0 mi NE 4.6 mph - N/A   Overcast
4:15 AM 42.8 °F 40.1 °F 42.8 °F 100% 29.86 in 5.0 mi NE 4.6 mph - N/A   Overcast
4:35 AM 42.8 °F 39.3 °F 42.8 °F 100% 29.86 in 5.0 mi ENE 5.8 mph - N/A   Overcast
4:55 AM 42.8 °F 38.6 °F 42.8 °F 100% 29.86 in 7.0 mi NE 6.9 mph - N/A   Overcast
5:15 AM 42.8 °F 39.3 °F 42.8 °F 100% 29.85 in 5.0 mi NE 5.8 mph - N/A   Overcast
5:35 AM 42.8 °F 41.1 °F 42.8 °F 100% 29.86 in 5.0 mi NE 3.5 mph - N/A   Overcast
5:55 AM 42.8 °F 41.1 °F 42.8 °F 100% 29.88 in 7.0 mi East 3.5 mph - N/A   Overcast
6:15 AM 42.8 °F 40.1 °F 42.8 °F 100% 29.87 in 7.0 mi NE 4.6 mph - N/A   Overcast
6:35 AM 42.8 °F 40.1 °F 42.8 °F 100% 29.89 in 7.0 mi East 4.6 mph - N/A   Overcast
6:55 AM 42.8 °F 38.6 °F 42.8 °F 100% 29.89 in 7.0 mi ENE 6.9 mph - N/A Rain Light Rain
7:15 AM 42.8 °F 37.5 °F 42.8 °F 100% 29.86 in 5.0 mi ENE 9.2 mph - 0.03 in Rain Rain
7:35 AM 42.8 °F 37.5 °F 42.8 °F 100% 29.87 in 7.0 mi NE 9.2 mph - 0.05 in Rain Light Rain
7:55 AM 42.8 °F 38.6 °F 42.8 °F 100% 29.87 in 10.0 mi NE 6.9 mph - 0.05 in   Overcast
8:15 AM 42.8 °F 41.1 °F 42.8 °F 100% 29.88 in 10.0 mi ENE 3.5 mph - N/A   Overcast
8:35 AM 44.6 °F 41.4 °F 42.8 °F 93% 29.89 in 10.0 mi ENE 5.8 mph - N/A   Overcast
8:55 AM 44.6 °F 41.4 °F 42.8 °F 93% 29.88 in 10.0 mi NE 5.8 mph - N/A Rain Light Rain
9:15 AM 44.6 °F 39.2 °F 42.8 °F 93% 29.87 in 10.0 mi East 10.4 mph - N/A   Overcast
9:35 AM 44.6 °F 40.2 °F 44.6 °F 100% 29.86 in 7.0 mi ENE 8.1 mph - N/A   Overcast
9:55 AM 44.6 °F 40.2 °F 44.6 °F 100% 29.86 in 4.0 mi ENE 8.1 mph - N/A   Overcast
10:15 AM 44.6 °F 41.4 °F 44.6 °F 100% 29.86 in 4.0 mi ENE 5.8 mph - N/A   Overcast
10:35 AM 44.6 °F 40.2 °F 44.6 °F 100% 29.85 in 5.0 mi ENE 8.1 mph - N/A   Overcast
10:55 AM 44.6 °F 40.7 °F 44.6 °F 100% 29.84 in 3.0 mi ENE 6.9 mph - N/A Rain Light Rain
11:15 AM 44.6 °F 40.2 °F 44.6 °F 100% 29.84 in 4.0 mi East 8.1 mph - N/A   Overcast
11:35 AM 46.4 °F 43.5 °F 44.6 °F 93% 29.84 in 5.0 mi East 5.8 mph - N/A Rain Light Rain
11:55 AM 46.4 °F 44.3 °F 44.6 °F 93% 29.85 in 7.0 mi East 4.6 mph - N/A Rain Light Rain
12:15 PM 46.4 °F - 46.4 °F 100% 29.86 in 3.0 mi Calm Calm - 0.04 in Rain Heavy Rain
12:35 PM 46.4 °F 44.3 °F 46.4 °F 100% 29.83 in 4.0 mi NNE 4.6 mph - 0.13 in Rain Rain
12:55 PM 46.4 °F 45.2 °F 46.4 °F 100% 29.85 in 3.0 mi NNW 3.5 mph - 0.18 in Rain Heavy Rain
1:15 PM 46.4 °F 41.9 °F 46.4 °F 100% 29.82 in 5.0 mi ENE 9.2 mph - 0.03 in Rain Rain
1:35 PM 46.4 °F 42.4 °F 46.4 °F 100% 29.81 in 5.0 mi ENE 8.1 mph - 0.08 in Rain Rain
1:55 PM 46.4 °F 41.9 °F 46.4 °F 100% 29.81 in 4.0 mi NE 9.2 mph - 0.15 in Rain Rain
2:15 PM 46.4 °F 43.5 °F 46.4 °F 100% 29.82 in 1.2 mi East 5.8 mph - 0.10 in Rain Light Rain
2:35 PM 46.4 °F 42.9 °F 46.4 °F 100% 29.83 in 4.0 mi ENE 6.9 mph - 0.16 in Rain Rain
2:55 PM 46.4 °F 42.4 °F 46.4 °F 100% 29.83 in 3.0 mi East 8.1 mph - 0.24 in Rain Light Rain
3:15 PM 46.4 °F 44.3 °F 46.4 °F 100% 29.82 in 3.0 mi ENE 4.6 mph - 0.06 in Rain Light Rain
3:35 PM 46.4 °F 44.3 °F 46.4 °F 100% 29.83 in 7.0 mi NE 4.6 mph - 0.09 in Rain Light Rain
3:55 PM 46.4 °F 44.3 °F 46.4 °F 100% 29.84 in 7.0 mi ESE 4.6 mph - 0.11 in Rain Light Rain
4:15 PM 48.2 °F - 46.4 °F 93% 29.82 in 5.0 mi East 8.1 mph - N/A Rain Light Rain
4:35 PM 46.4 °F 43.5 °F 46.4 °F 100% 29.81 in 5.0 mi East 5.8 mph - 0.03 in Rain Rain
4:55 PM 48.2 °F - 48.2 °F 100% 29.79 in 5.0 mi East 6.9 mph - 0.08 in Rain Rain
5:15 PM 48.2 °F - 46.4 °F 93% 29.80 in 10.0 mi ENE 10.4 mph - N/A   Light Drizzle
5:35 PM 48.2 °F - 46.4 °F 93% 29.81 in 10.0 mi ENE 6.9 mph - N/A   Overcast
5:55 PM 48.2 °F - 46.4 °F 93% 29.83 in 10.0 mi Calm Calm - N/A Rain Light Rain
6:15 PM 48.2 °F - 46.4 °F 93% 29.82 in 10.0 mi NE 4.6 mph - N/A Rain Light Rain
6:35 PM 48.2 °F - 46.4 °F 93% 29.81 in 10.0 mi NE 6.9 mph - N/A   Overcast
6:55 PM 46.4 °F 45.2 °F 46.4 °F 100% 29.83 in 10.0 mi ENE 3.5 mph - N/A Rain Light Rain
7:15 PM 46.4 °F 44.3 °F 46.4 °F 100% 29.83 in 10.0 mi ENE 4.6 mph - N/A Rain Light Rain
7:35 PM 46.4 °F - 46.4 °F 100% 29.83 in 10.0 mi Calm Calm - N/A   Overcast
7:55 PM 46.4 °F - 46.4 °F 100% 29.84 in 10.0 mi Calm Calm - N/A   Overcast
8:15 PM 46.4 °F - 46.4 °F 100% 29.84 in 5.0 mi Calm Calm - 0.02 in Rain Heavy Rain
8:35 PM 46.4 °F 45.2 °F 46.4 °F 100% 29.84 in 10.0 mi ENE 3.5 mph - 0.04 in Rain Light Rain
8:55 PM 46.4 °F - 46.4 °F 100% 29.84 in 10.0 mi Calm Calm - 0.04 in Rain Light Rain
9:15 PM 46.4 °F 45.2 °F 46.4 °F 100% 29.84 in 10.0 mi East 3.5 mph - N/A   Overcast
9:35 PM 46.4 °F 45.2 °F 46.4 °F 100% 29.85 in 10.0 mi East 3.5 mph - N/A   Overcast
9:55 PM 46.4 °F - 46.4 °F 100% 29.86 in 10.0 mi Calm Calm - N/A   Overcast
10:15 PM 46.4 °F - 46.4 °F 100% 29.86 in 10.0 mi Calm Calm - N/A   Overcast
10:35 PM 46.4 °F - 46.4 °F 100% 29.86 in 10.0 mi Calm Calm - N/A   Overcast
10:55 PM 46.4 °F 45.2 °F 46.4 °F 100% 29.86 in 10.0 mi East 3.5 mph - N/A   Overcast
11:15 PM 46.4 °F - 46.4 °F 100% 29.85 in 5.0 mi Calm Calm - N/A   Overcast
11:35 PM 46.4 °F - 46.4 °F 100% 29.85 in 7.0 mi Calm Calm - N/A   Overcast
11:55 PM 46.4 °F - 46.4 °F 100% 29.85 in 4.0 mi Calm Calm - N/A Rain Light Rain